{"data":{"norad_id":64274,"epoch":"2026-05-25T02:46:22.226592Z","epoch_age_seconds":58844,"freshness":"FRESH","line1":"1 64274U 25120U   26145.11553503  .00011600  00000+0  40307-3 0  9998","line2":"2 64274  53.1599 121.9562 0001252 109.9508 250.1627 15.30207273 55514","mean_motion":15.30207273,"eccentricity":0.0001252,"inclination_deg":53.1599,"raan_deg":121.9562,"arg_perigee_deg":109.9508,"mean_anomaly_deg":250.1627,"bstar":0.00040307,"rev_number":5551,"period_min":94.104898428358,"perigee_km":474.33531667803,"apogee_km":476.05139059858,"semimajor_km":6853.3303536383,"source":"CELESTRAK","updated_at":"2026-05-25T13:38:20.361611Z"}}